Temp
8 8 8 8 8 8 8 7 7 8 8 8 9 9 10 12 15 17 21 23 24 23 23 23 23 26 26 29 30 31 30 31 33 33 33 34 34 34 34 34 35 35 34 34 33
7 8 8 8 8 8 8 8 7 7 7 8 8 8 9 11 13 18 21 21 22 22 23 25 27 27 28 29 30 29 31 32 34 34 34 34 33 33 32 33 33 34 35 34 32
7 8 8 7 7 7 7 8 8 8 8 7 7 8 9 10 18 25 19 20 19 20 22 26 27 28 29 30 30 30 30 33 33 34 34 33 33 34 33 32 33 34 34 34 33
7 7 7 8 7 7 7 7 7 8 8 8 7 7 9 12 23 21 19 19 20 21 21 25 27 28 28 29 30 29 31 32 33 33 33 32 33 32 33 32 33 33 34 34 33
7 7 7 7 7 7 7 7 7 7 7 8 7 7 10 16 20 21 19 18 20 20 23 27 27 28 29 30 30 30 31 31 32 31 32 32 31 32 32 33 33 33 33 33 33
7 7 7 7 7 7 7 7 7 8 7 7 8 8 11 14 18 18 17 18 20 22 23 25 27 29 29 30 30 31 31 31 31 32 32 31 31 32 32 32 32 32 33 34 34
7 7 7 7 7 7 7 7 8 9 8 7 8 8 11 15 16 16 17 18 18 20 24 24 26 27 28 28 30 30 29 31 30 31 31 32 30 30 33 32 32 33 33 34 34
7 7 7 6 7 7 7 7 9 9 8 8 8 9 12 15 15 15 16 17 17 17 20 23 24 26 27 28 28 28 29 28 30 30 30 30 29 32 34 33 33 33 33 33 33
7 7 7 7 6 6 7 9 9 9 9 8 10 11 16 14 14 15 16 17 20 19 19 21 23 25 26 25 26 28 27 28 29 32 31 30 29 32 34 33 32 32 32 32 33
6 7 7 7 7 7 9 9 9 10 10 11 12 13 16 18 18 17 18 17 18 21 20 21 24 24 25 26 26 27 28 28 29 32 30 30 30 32 33 33 31 32 32 33 33
6 6 7 7 7 7 8 12 15 15 13 16 17 16 18 19 18 18 18 18 18 20 20 22 23 24 25 26 27 28 29 29 30 31 30 29 30 32 33 32 31 32 33 32 32
6 6 6 7 7 7 9 13 11 10 11 15 16 16 16 16 15 18 18 18 18 19 21 23 23 26 27 27 27 27 27 28 30 30 30 29 29 31 32 32 31 32 32 32 33
7 7 7 6 7 8 10 10 10 10 11 15 17 16 17 17 16 17 19 19 19 20 22 23 25 26 27 27 27 27 26 27 28 29 29 28 27 28 30 31 32 32 32 32 32
7 7 6 6 9 10 11 10 10 10 11 17 16 17 17 17 16 18 19 20 20 20 21 23 26 26 26 26 28 26 28 27 27 27 26 29 27 28 30 30 31 31 32 32 33
6 6 6 6 8 10 10 9 9 10 13 17 17 18 19 18 18 19 19 19 19 20 21 22 23 25 26 26 28 27 28 27 26 26 26 27 27 28 30 29 30 31 32 33 33
6 6 6 9 8 9 9 9 10 10 13 17 18 17 18 18 18 18 19 19 19 19 22 22 26 25 26 27 28 28 27 26 27 26 25 26 27 27 29 30 30 32 33 33 30
6 6 7 7 9 8 9 11 11 12 16 16 15 16 17 17 17 17 17 18 18 17 19 22 22 25 26 26 27 26 25 25 25 25 25 28 27 28 30 31 31 32 32 31 28
6 7 7 8 7 7 9 10 11 14 14 16 15 15 16 17 16 16 16 15 18 20 21 20 21 23 26 26 26 26 26 27 25 26 27 28 26 29 30 31 31 32 32 30 28
7 9 10 8 7 8 10 10 12 12 13 13 14 14 16 17 16 16 15 13 12 18 19 22 22 25 25 27 28 26 27 29 28 28 28 29 28 30 30 30 31 32 32 31 28
8 10 10 7 7 8 8 10 12 13 13 13 12 14 14 16 15 16 15 11 11 13 16 19 20 25 25 27 28 27 28 27 28 25 25 29 28 29 31 31 32 32 32 30 27
9 13 9 8 8 8 9 11 12 13 13 12 12 12 13 14 15 15 15 12 10 11 14 17 18 23 25 25 26 27 27 27 28 28 27 27 29 30 30 32 32 33 32 29 27
10 12 9 8 9 10 9 11 11 12 13 12 13 12 12 13 14 15 15 15 11 12 11 18 18 20 24 26 28 28 27 27 27 26 28 29 29 31 31 32 33 32 30 28 28
11 11 10 9 9 9 10 12 13 12 12 11 11 13 13 13 12 14 14 12 12 12 10 13 18 20 22 26 26 27 27 27 28 29 26 28 28 31 30 31 31 30 29 28 27
11 10 12 11 10 9 9 11 12 13 12 12 12 13 12 13 14 13 12 11 12 12 11 11 15 20 22 24 26 26 27 28 27 27 28 28 29 31 31 31 30 29 28 28 28
10 10 9 9 10 9 9 10 10 10 12 13 12 12 12 11 13 10 11 12 12 11 10 11 16 19 20 20 21 24 27 27 27 27 27 29 28 30 32 31 31 30 29 28 28
8 8 9 9 10 9 10 10 11 11 11 11 12 13 12 12 13 12 13 11 8 9 10 12 15 19 19 21 22 23 25 27 27 27 27 28 27 30 31 32 31 29 29 29 28
6 7 6 9 9 8 10 9 8 8 10 12 11 11 11 13 13 13 14 13 12 12 11 12 12 18 19 22 22 22 24 26 27 27 27 27 28 30 30 30 31 30 29 30 29
Height
832 829 828 825 822 818 816 816 813 810 809 806 803 801 799 796 792 793 788 786 786 786 788 791 791 789 788 783 779 773 786 782 770 768 764 753 756 752 750 753 747 746 749 748 750
832 829 825 823 821 819 817 815 812 811 809 806 803 802 799 794 791 784 779 779 782 784 785 784 782 785 780 777 774 776 774 769 754 751 755 748 755 752 759 757 753 746 741 745 749
830 827 825 823 820 817 815 812 810 809 807 806 803 801 799 794 790 768 768 773 774 772 777 779 777 779 776 768 766 764 764 753 749 747 747 751 752 744 752 758 750 747 742 742 743
832 829 826 822 819 816 816 814 811 810 807 804 802 800 798 796 779 764 768 769 765 763 770 773 774 773 772 766 760 766 749 751 749 742 749 754 746 748 745 747 740 741 740 738 736
832 830 827 825 822 818 814 810 807 805 803 803 801 801 797 788 770 767 765 764 764 764 762 762 765 762 762 756 755 753 752 748 746 748 748 747 748 744 739 736 736 738 735 733 730
832 828 825 822 818 814 810 807 805 802 800 798 799 800 796 784 766 766 766 764 764 763 762 760 757 751 750 748 746 741 742 744 745 742 741 746 740 737 733 733 732 733 729 724 723
829 826 822 819 815 811 808 804 800 797 794 795 796 795 790 770 765 765 764 763 765 764 759 759 755 753 747 752 740 740 748 740 743 741 739 737 739 738 726 727 727 724 723 719 717
827 823 819 815 811 808 803 798 794 789 786 786 787 789 774 763 761 760 759 758 760 762 762 757 755 752 747 745 745 749 745 750 735 736 738 745 734 720 714 717 717 718 716 713 711
825 821 817 813 808 804 798 791 786 783 781 780 784 783 760 756 757 755 756 755 752 756 758 757 755 750 750 756 755 740 741 737 739 724 731 737 724 714 708 712 717 716 714 709 702
822 818 814 809 805 800 792 785 782 781 781 781 779 781 757 749 751 752 750 751 751 748 753 751 747 748 746 740 725 737 735 736 731 719 728 732 717 713 705 708 712 708 706 700 696
819 815 810 806 802 798 792 785 778 773 775 764 755 755 745 746 748 747 746 748 747 743 737 738 745 731 706 719 720 722 719 721 715 715 720 723 717 707 701 703 709 702 697 694 690
816 812 807 803 798 794 792 787 789 791 775 760 752 749 746 748 748 742 744 744 740 734 733 728 722 678 712 714 720 723 725 719 711 710 718 722 718 704 697 698 700 695 689 687 682
815 810 805 801 797 794 792 790 790 790 776 747 740 739 738 739 738 734 736 732 730 728 718 707 677 710 704 710 715 713 720 724 724 714 715 724 722 712 700 691 684 680 680 679 677
812 807 803 799 797 793 788 790 790 789 770 730 733 732 733 734 733 725 724 724 720 720 716 709 690 693 699 698 698 708 710 721 725 731 732 717 716 705 693 685 679 675 674 670 666
810 806 801 798 796 791 790 789 788 787 748 724 728 728 724 726 721 717 717 720 716 710 710 690 693 691 686 672 692 696 701 715 719 725 724 722 721 700 686 686 678 670 664 660 659
807 801 796 792 793 791 789 789 788 780 742 724 721 725 720 716 719 717 714 714 712 713 699 692 676 680 668 678 683 693 705 713 712 717 724 715 716 704 684 674 666 659 653 650 663
801 796 793 793 791 789 788 785 772 754 729 729 734 729 725 718 720 722 716 710 710 714 706 690 686 677 671 681 679 691 708 720 727 721 715 695 702 684 663 655 656 654 650 655 665
797 793 793 793 791 789 787 782 765 739 741 734 736 732 724 712 717 723 717 716 698 694 686 697 691 676 661 663 670 680 684 684 712 704 694 681 696 672 650 645 644 644 646 653 662
796 795 792 792 789 790 783 771 751 752 749 749 742 728 716 710 716 713 716 726 733 701 693 674 675 650 657 655 655 670 674 660 673 675 682 668 672 654 644 644 639 639 643 650 659
799 794 793 793 791 791 788 770 759 758 754 749 746 731 725 714 716 707 709 733 736 727 710 682 678 645 653 649 648 651 658 679 671 696 701 669 671 664 644 640 635 636 640 647 659
798 786 795 794 793 790 781 771 761 757 757 751 742 736 729 721 716 711 712 728 739 733 717 696 686 654 646 648 642 647 656 657 658 662 680 683 668 643 643 631 633 630 633 648 658
797 783 795 793 789 785 783 772 770 757 752 751 744 742 735 727 717 712 708 705 730 727 726 693 684 669 646 635 628 635 643 653 662 677 664 660 661 631 631 626 626 631 639 646 653
794 794 793 792 789 783 778 766 762 759 753 753 749 737 731 726 725 713 712 722 722 724 728 713 684 669 657 641 636 636 638 643 648 646 671 672 665 631 632 632 631 638 644 649 654
799 793 787 789 789 790 781 765 760 757 752 750 744 737 734 722 716 715 722 727 723 723 725 723 694 661 649 639 632 639 636 638 650 658 656 660 652 638 634 635 638 642 648 650 653
802 796 799 789 786 789 782 775 768 764 754 745 740 735 734 732 719 729 727 720 718 722 722 715 682 665 663 662 659 643 634 637 647 650 655 648 655 641 629 637 639 640 646 650 652
806 806 800 794 787 784 776 769 763 760 758 751 739 735 733 728 722 716 716 724 733 727 720 710 686 664 666 663 657 652 635 633 640 647 648 646 652 636 630 629 636 641 644 647 649
811 809 808 792 786 785 776 774 774 773 758 748 748 744 733 724 723 720 716 714 717 715 712 705 701 673 665 651 654 659 642 634 638 639 642 653 643 634 636 636 636 636 641 641 643
Wind_Speed
16 17 17 17 18 20 20 16 16 15 16 16 15 17 20 22 22 13 15 12 6 13 6 7 14 12 13 13 13 12 11 14 19 14 11 5 8 1 2 10 10 7 11 12 13
17 17 18 18 18 17 18 18 17 16 15 16 16 17 19 18 20 19 18 19 20 17 13 17 14 18 14 16 11 14 15 23 21 13 15 8 9 8 9 14 18 15 17 8 13
18 19 19 20 20 19 18 19 18 18 16 16 15 16 16 14 13 10 10 8 8 27 27 23 20 17 21 17 20 19 24 23 23 21 19 19 20 19 16 18 21 21 19 17 19
16 16 17 19 20 21 19 17 16 16 16 18 16 13 14 6 9 8 13 5 10 15 23 27 20 22 21 25 22 29 25 23 26 25 20 19 23 23 22 20 23 22 21 23 22
17 17 17 17 18 18 19 20 19 18 17 16 15 13 9 9 15 3 11 10 6 7 25 26 26 24 28 23 25 30 25 25 22 25 23 23 26 29 27 22 24 21 21 20 19
17 18 18 19 20 20 20 21 21 22 20 15 13 11 11 17 7 13 14 12 10 8 13 24 15 22 24 27 28 26 28 29 28 27 25 25 26 26 26 22 26 22 22 21 20
18 20 20 20 20 21 22 23 24 22 22 18 14 9 12 21 14 11 16 16 11 12 14 15 27 12 16 21 25 25 27 27 22 25 27 25 27 28 25 21 25 22 18 20 20
19 21 22 22 21 22 24 26 26 27 23 16 12 11 9 13 14 21 20 22 20 19 14 13 15 22 18 13 14 20 24 25 26 22 21 16 30 24 17 19 19 16 18 20 22
20 21 23 22 22 23 27 29 26 14 10 6 8 10 11 4 10 17 16 18 17 19 18 14 16 19 15 21 18 25 26 32 26 24 24 25 35 25 23 17 15 16 19 20 22
22 23 24 23 23 27 29 21 6 2 1 5 6 6 10 9 3 5 7 11 11 15 13 19 13 15 20 19 30 28 25 26 28 21 17 27 33 23 21 20 19 19 20 21 20
23 24 23 22 23 27 18 11 5 7 9 12 8 15 19 17 9 14 6 8 10 16 24 24 20 27 43 34 26 26 26 31 26 25 24 26 30 27 23 16 21 23 21 21 22
25 24 23 23 25 21 11 8 3 6 12 18 25 25 31 28 13 19 15 10 12 21 24 20 30 46 29 29 29 29 28 30 24 19 22 23 29 27 22 23 22 25 22 23 21
25 24 25 24 22 4 12 6 2 10 7 16 13 14 12 12 16 21 18 19 19 19 26 33 40 27 28 31 32 31 31 24 26 19 18 22 28 28 26 28 26 23 20 20 20
27 26 24 22 9 10 8 2 7 8 6 9 5 5 6 6 6 20 13 21 19 24 22 30 33 26 32 33 31 32 24 24 24 20 23 21 24 27 25 27 22 23 22 23 18
27 27 24 16 14 7 6 6 7 5 6 6 6 4 3 7 8 7 10 15 27 21 15 30 20 35 29 43 29 30 18 22 23 21 23 27 19 21 19 23 25 25 21 17 13
29 26 23 6 6 9 9 8 5 5 8 1 3 3 7 7 3 5 5 12 13 27 26 28 15 22 41 20 28 22 18 21 18 16 20 21 21 21 23 26 24 21 17 14 7
31 24 5 2 5 6 3 6 5 7 8 1 8 8 15 15 3 10 7 12 12 17 27 25 29 22 21 29 24 23 22 10 13 13 15 16 15 23 21 19 22 16 11 10 8
28 5 4 3 4 4 6 4 5 6 7 16 13 17 18 12 1 7 9 7 15 23 18 23 21 30 22 30 24 30 27 14 18 14 13 19 11 14 11 18 22 19 10 10 10
12 1 7 8 3 3 4 5 5 11 8 11 17 16 15 6 4 8 3 3 6 15 20 21 28 27 25 24 29 28 27 25 8 4 8 9 14 13 18 15 13 12 16 12 10
10 3 11 8 3 1 2 5 5 6 13 14 15 9 13 12 8 7 1 5 6 12 14 9 12 25 33 24 26 28 24 22 13 15 12 8 12 7 3 6 10 12 13 11 13
6 3 7 5 1 1 3 6 12 12 14 8 13 13 15 14 13 13 5 7 4 9 15 13 8 17 24 24 27 18 23 21 17 12 13 6 6 7 13 7 11 12 14 15 16
5 2 5 5 2 2 5 11 8 12 11 10 8 6 8 10 12 12 8 3 9 3 9 6 8 11 27 26 24 24 21 26 14 20 10 7 2 4 4 3 8 6 11 16 17
6 3 1 5 4 6 11 15 10 14 15 7 10 6 13 11 5 5 6 11 11 7 3 3 11 11 12 24 22 27 22 27 15 9 19 12 3 3 6 5 4 9 13 16 18
4 4 2 2 3 8 11 8 12 10 10 12 13 12 12 10 7 7 9 7 5 7 9 7 9 17 7 22 18 25 28 26 23 12 13 16 11 8 8 10 7 9 13 16 18
3 2 3 4 5 11 10 8 12 9 7 14 6 7 11 8 16 2 7 13 7 5 5 4 12 19 13 8 7 13 25 23 26 19 15 14 18 14 11 8 6 9 15 17 18
3 3 4 10 9 11 7 8 12 14 12 10 13 17 17 16 13 17 13 6 2 5 5 4 4 13 16 14 8 8 13 26 23 22 21 11 13 13 14 11 6 6 15 18 18
1 3 3 7 6 6 6 10 12 15 10 9 13 16 14 12 14 17 16 14 13 13 6 4 4 10 17 16 7 10 13 19 21 19 21 19 16 3 2 5 7 2 14 18 19
Wind_Direction
356 352 352 352 346 348 349 340 337 335 331 327 323 322 316 319 312 296 252 239 221 226 228 206 202 204 202 234 227 233 239 247 250 249 246 180 236 166 324 273 274 260 273 296 309
352 348 347 346 345 341 336 334 337 336 328 327 325 312 315 327 313 275 253 249 251 239 217 211 202 209 209 221 216 216 230 244 249 263 270 239 245 280 278 274 276 272 258 264 267
352 349 344 341 341 337 335 334 332 328 326 323 321 320 315 329 278 245 183 182 210 227 227 232 229 216 231 222 218 227 241 249 247 256 260 281 272 273 264 271 272 283 305 295 287
345 344 339 338 335 331 326 323 319 316 315 316 320 319 316 308 253 117 168 102 348 228 210 218 221 218 234 232 229 246 244 244 264 263 260 259 273 279 267 270 276 286 288 290 289
347 342 337 333 329 324 320 319 317 317 310 303 309 311 320 236 245 228 245 319 354 172 200 203 213 217 232 237 239 243 251 252 250 264 267 270 269 270 276 282 280 284 284 278 277
343 340 337 333 329 323 320 316 314 312 306 299 290 292 268 254 279 263 279 289 275 239 213 214 226 226 242 242 243 247 246 250 257 256 260 260 265 270 271 278 277 275 281 281 285
342 342 338 333 327 323 318 314 312 310 299 284 265 253 259 252 264 274 275 270 253 251 237 217 223 227 223 249 254 258 254 257 247 252 252 261 265 261 266 264 268 276 280 279 286
341 341 339 336 331 325 318 315 311 305 293 276 239 228 258 257 260 261 266 262 249 245 241 254 227 237 241 262 266 249 243 249 232 232 244 238 260 260 269 266 270 270 280 286 287
339 337 336 334 331 328 323 319 308 299 302 221 188 212 273 225 237 255 246 248 247 229 231 234 227 228 221 231 246 231 237 236 245 242 238 233 256 252 256 255 260 272 279 285 293
336 335 335 334 331 331 329 328 301 272 34 182 245 218 241 242 228 223 265 228 242 215 204 213 208 213 223 212 226 229 232 243 258 240 224 241 249 254 258 257 273 277 277 287 293
337 335 336 335 332 330 333 321 244 205 221 259 264 242 288 277 259 262 243 213 208 225 204 196 203 214 218 220 235 246 243 246 245 244 242 236 253 260 258 267 270 276 285 285 288
344 340 338 336 331 328 334 333 20 336 295 272 257 261 263 272 275 268 257 227 201 221 212 191 217 221 220 223 228 236 242 247 255 247 242 253 265 274 269 261 271 275 278 282 284
342 341 340 333 331 343 331 290 304 330 264 285 258 257 257 237 248 257 238 227 233 228 215 217 223 220 221 222 226 227 232 239 249 252 249 259 267 267 265 258 255 267 265 269 272
341 339 336 333 299 328 302 227 300 323 280 258 204 199 182 219 227 235 243 221 222 232 228 232 236 216 220 226 219 231 222 241 250 252 253 245 267 266 270 268 262 265 268 266 268
336 332 327 318 295 293 325 297 308 254 279 94 135 95 195 233 328 92 175 227 237 217 220 226 223 230 224 226 217 233 224 230 241 251 266 256 260 271 268 267 266 265 255 253 250
333 329 323 322 259 282 287 291 263 234 247 317 128 291 286 207 301 319 271 211 258 239 239 240 231 227 231 224 220 220 217 224 234 243 249 251 253 266 263 264 267 260 255 225 191
334 330 349 314 328 315 278 258 236 250 14 292 339 323 302 283 297 297 301 280 219 213 228 230 237 247 240 217 205 188 193 198 220 224 253 242 243 252 261 256 253 254 242 150 168
343 50 3 344 304 289 241 219 267 344 290 320 323 308 282 290 167 298 286 315 291 236 223 222 228 221 214 214 191 192 189 207 215 229 244 206 240 243 252 255 248 248 228 152 166
3 100 11 349 329 221 256 243 335 340 331 315 306 271 270 218 253 272 278 308 291 317 249 211 232 192 226 213 199 192 213 213 244 268 259 176 239 263 258 249 246 231 207 180 158
333 272 29 7 40 244 292 298 315 305 304 306 295 280 286 292 292 289 250 128 310 327 308 286 262 225 198 206 205 196 195 203 211 225 218 228 251 245 303 210 214 187 187 169 161
329 258 27 16 308 198 338 326 318 323 319 312 307 304 299 286 283 283 272 130 134 307 300 274 256 218 192 204 191 188 198 209 213 232 204 237 229 202 249 214 197 199 178 162 165
331 308 20 332 303 352 327 325 320 304 326 301 285 289 284 296 281 263 262 245 170 270 303 260 273 258 212 202 214 198 201 198 197 195 237 237 205 299 228 133 206 118 150 156 156
333 303 6 320 352 343 317 306 286 303 322 322 298 279 312 292 296 282 318 113 168 206 293 349 227 227 224 201 206 209 209 196 213 189 202 205 212 174 132 136 153 141 147 151 153
325 329 10 12 355 326 337 328 329 319 315 299 301 288 327 315 267 291 342 329 290 245 238 251 258 242 211 190 192 205 201 193 203 206 189 212 190 176 131 126 127 149 159 158 160
9 9 351 311 339 313 308 299 311 340 315 316 295 313 331 313 317 124 307 320 294 210 240 255 239 223 245 303 304 262 206 199 205 214 224 192 221 239 171 81 61 157 167 164 161
354 352 337 296 302 324 310 300 315 329 311 301 300 327 323 302 295 301 312 308 318 340 294 256 281 248 238 241 240 235 240 205 204 206 226 216 228 240 268 283 260 196 182 174 169
305 274 274 290 301 313 318 318 302 309 286 306 307 305 299 323 325 304 293 285 266 282 292 313 303 231 226 212 209 223 210 215 204 208 218 220 232 190 211 238 266 130 195 183 174